DW9572 Weather Reports


time (UTC)temp
C
wind
direction
speed
KPH
gust
KPH
rain 1hr
cm
rain 24hr
cm
rain mn
cm
humidity
%
barometer
mb
20260906060028 18 16 11.3 17.7 0.00 0.00 0.00 53 1014.9
20260906054509 18 8 11.3 19.3 0.00 0.00 0.00 52 1014.8
20260906053011 18 356 12.9 17.7 0.00 0.00 0.00 53 1014.9
20260906051549 17 318 1.6 9.7 0.00 0.00 0.00 56 1015.2
20260906050100 17 304 3.2 6.4 0.00 0.00 0.00 57 1015.4
20260906044534 17 293 3.2 6.4 0.00 0.00 0.00 55 1015.3
20260906043030 17 331 0.0 4.8 0.00 0.00 0.00 55 1015.3
20260906041514 17 260 0.0 4.8 0.00 0.00 0.00 55 1015.2
20260906040012 18 340 9.7 16.1 0.00 0.00 0.00 51 1014.9
20260906034603 18 330 9.7 14.5 0.00 0.00 0.00 51 1014.9
20260906033057 18 316 6.4 9.7 0.00 0.00 0.00 51 1014.8
20260906031547 18 333 1.6 8.0 0.00 0.00 0.00 52 1014.6
20260906030037 19 316 11.3 14.5 0.00 0.00 0.00 52 1014.4
20260906024521 20 320 14.5 20.9 0.00 0.00 0.00 52 1014.4
20260906023020 20 313 12.9 16.1 0.00 0.00 0.00 51 1014.4
20260906021502 20 264 8.0 8.0 0.00 0.00 0.00 51 1014.5
20260906020106 21 259 6.4 9.7 0.00 0.00 0.00 47 1014.5
20260906020002 21 257 6.4 9.7 0.00 0.00 0.00 47 1014.4
20260906014552 22 260 9.7 16.1 0.00 0.00 0.00 45 1014.4
20260906013042 22 256 14.5 17.7 0.00 0.00 0.00 44 1014.4
20260906011524 22 218 16.1 19.3 0.00 0.00 0.00 44 1014.4
20260906010024 22 221 16.1 19.3 0.00 0.00 0.00 45 1014.4
20260906004505 23 235 16.1 22.5 0.00 0.00 0.00 45 1014.3
20260906003003 23 203 16.1 22.5 0.00 0.00 0.00 44 1014.4
20260906001544 23 267 14.5 24.1 0.00 0.00 0.00 43 1014.5
20260906000044 22 239 17.7 27.4 0.00 0.00 0.00 46 1014.5
20260905234525 22 259 20.9 30.6 0.00 0.00 0.00 47 1014.5
20260905233031 22 260 22.5 30.6 0.00 0.00 0.00 45 1014.6
20260905231507 22 244 24.1 29.0 0.00 0.00 0.00 46 1014.6
20260905230006 22 215 20.9 29.0 0.00 0.00 0.00 47 1014.6
20260905224610 21 207 14.5 22.5 0.00 0.00 0.00 51 1014.6
20260905223051 22 260 20.9 27.4 0.00 0.00 0.00 49 1014.8
20260905221550 23 222 12.9 19.3 0.00 0.00 0.00 38 1015.1
20260905220046 23 205 4.8 14.5 0.00 0.00 0.00 39 1015.1
20260905214544 22 146 6.4 11.3 0.00 0.00 0.00 40 1015.4
20260905213041 22 156 8.0 16.1 0.00 0.00 0.00 40 1015.5
20260905211545 22 128 0.0 8.0 0.00 0.00 0.00 41 1015.6
20260905210050 21 11 6.4 11.3 0.00 0.00 0.00 43 1015.7
20260905204534 21 336 0.0 9.7 0.00 0.00 0.00 45 1015.8
20260905203015 21 72 12.9 17.7 0.00 0.00 0.00 46 1016.0
20260905201514 21 345 11.3 17.7 0.00 0.00 0.00 46 1016.1
20260905200120 21 1 14.5 19.3 0.00 0.00 0.00 47 1016.1
20260905194552 20 9 9.7 19.3 0.00 0.00 0.00 48 1016.2
20260905193033 20 20 11.3 16.1 0.00 0.00 0.00 48 1016.2
20260905191539 20 3 14.5 20.9 0.00 0.00 0.00 49 1016.3
20260905190014 20 338 8.0 19.3 0.00 0.00 0.00 49 1016.4
20260905184512 20 5 8.0 19.3 0.00 0.00 0.00 49 1016.6
20260905183054 19 343 6.4 16.1 0.00 0.00 0.00 50 1016.8
20260905181551 19 59 11.3 22.5 0.00 0.00 0.00 49 1016.8
20260905180036 19 75 12.9 17.7 0.00 0.00 0.00 50 1017.0
20260905174533 19 340 8.0 14.5 0.00 0.00 0.00 52 1017.1
20260905173011 18 352 9.7 14.5 0.00 0.00 0.00 53 1017.2
20260905171529 18 25 6.4 17.7 0.00 0.00 0.00 53 1017.1
20260905170057 18 332 6.4 14.5 0.00 0.00 0.00 54 1017.1
20260905164550 17 46 12.9 19.3 0.00 0.00 0.00 54 1016.9
20260905163030 17 63 16.1 19.3 0.00 0.00 0.00 54 1016.9
20260905161536 17 33 12.9 17.7 0.00 0.00 0.00 56 1016.9
20260905160015 16 6 11.3 14.5 0.00 0.00 0.00 61 1016.9
20260905154502 15 343 1.6 9.7 0.00 0.00 0.00 71 1016.9
20260905153046 14 312 6.4 9.7 0.00 0.00 0.00 76 1017.0
20260905151546 14 277 6.4 11.3 0.00 0.00 0.00 79 1017.3
20260905150044 14 269 4.8 11.3 0.00 0.00 0.00 78 1017.3
20260905144550 14 118 1.6 4.8 0.00 0.00 0.00 76 1017.3
20260905143040 13 104 1.6 6.4 0.00 0.00 0.00 76 1017.0
20260905141537 13 291 3.2 8.0 0.00 0.00 0.00 77 1016.8
20260905140039 13 263 6.4 11.3 0.00 0.00 0.00 78 1016.7
20260905134533 13 279 11.3 16.1 0.00 0.00 0.00 76 1016.6
20260905133011 14 266 6.4 11.3 0.00 0.00 0.00 73 1016.5
20260905131510 13 347 0.0 3.2 0.00 0.00 0.00 69 1016.2
20260905130053 13 155 0.0 4.8 0.00 0.00 0.00 67 1016.0
20260905124550 15 276 0.0 9.7 0.00 0.00 0.00 66 1015.7
20260905123031 15 359 16.1 20.9 0.00 0.00 0.00 63 1015.4
20260905121530 15 15 6.4 9.7 0.00 0.00 0.00 59 1015.6
20260905120012 15 16 1.6 8.0 0.00 0.00 0.00 59 1015.7
20260905114512 14 349 8.0 9.7 0.00 0.00 0.00 62 1015.8
20260905113053 13 263 6.4 8.0 0.00 0.00 0.00 66 1015.8
20260905111606 13 276 6.4 9.7 0.00 0.00 0.00 67 1015.7
20260905110035 13 353 3.2 6.4 0.00 0.00 0.00 62 1015.6
20260905104543 13 10 0.0 4.8 0.00 0.00 0.00 62 1015.7
20260905103021 13 32 4.8 6.4 0.00 0.00 0.00 60 1015.4
20260905101521 14 45 3.2 8.0 0.00 0.00 0.00 59 1015.4
20260905100019 15 77 4.8 6.4 0.00 0.00 0.00 59 1015.3
20260905094518 16 338 3.2 6.4 0.00 0.00 0.00 54 1015.3
20260905093018 15 263 6.4 8.0 0.00 0.00 0.00 61 1015.3
20260905091518 14 269 3.2 12.9 0.00 0.00 0.00 64 1015.3
20260905090021 14 256 8.0 19.3 0.00 0.00 0.00 68 1015.3
20260905084522 15 242 14.5 19.3 0.00 0.00 0.00 66 1015.2
20260905083058 15 281 11.3 16.1 0.00 0.00 0.00 63 1014.9
20260905081611 16 259 11.3 14.5 0.00 0.00 0.00 57 1014.8
20260905080051 17 332 12.9 17.7 0.00 0.00 0.00 50 1014.6
20260905074638 17 333 1.6 14.5 0.00 0.00 0.00 50 1014.7
20260905073034 17 349 8.0 14.5 0.00 0.00 0.00 49 1014.5
20260905071518 17 346 11.3 19.3 0.00 0.00 0.00 49 1014.4
20260905070100 17 349 12.9 19.3 0.00 0.00 0.00 50 1014.4
20260905064602 17 350 11.3 17.7 0.00 0.00 0.00 51 1014.3
20260905063040 16 345 14.5 20.9 0.00 0.00 0.00 51 1014.1
20260905061603 16 348 12.9 17.7 0.00 0.00 0.00 51 1014.2